Simultaneous Nadir Overpasses (SNOs) Predictions

Prediction of SNOs between GOES-14 and NOAA-20 Satellite Orbit:

Table of predicted SNOs for the next 14.0 days since TLE Epoch: 5/9/2025
Index Date Time (GOES-14) GOES-14 Lat,Lon NOAA-20 Lat,Lon Distance(km) Time Diff (sec)
1 05/10/2025 08:31:34 0.21,-108.38 -0.17,-106.66 195.31 80
2 05/11/2025 20:50:53 -0.15,-108.40 -0.93,-111.99 408.85 80
3 05/12/2025 20:34:49 -0.18,-108.40 0.05,-107.45 108.03 80
4 05/14/2025 08:53:58 0.11,-108.37 1.10,-112.73 496.77 80
5 05/15/2025 08:37:53 0.14,-108.37 0.12,-108.19 19.95 80
6 05/17/2025 20:38:27 -0.11,-108.38 -0.28,-108.97 68.29 80
7 05/18/2025 20:22:23 -0.15,-108.38 0.71,-104.44 448.51 80
8 05/20/2025 08:41:33 0.08,-108.36 0.39,-109.73 156.48 80
9 05/21/2025 08:25:29 0.12,-108.35 -0.60,-105.19 360.20 80
10 05/22/2025 20:44:47 -0.04,-108.37 -0.52,-110.51 244.67 80
